Regional Weather Roundup
Issued by NWS Wakefield, VA

Home | Current Version | Previous Version | Text Only | Print | Product List | Glossary Off
Versions: 1 2 3 4 5 6 7 8 9 10 11 12 13 14 15 16 17 18 19 20 21 22 23 24 25 26 27 28 29 30 31 32 33 34 35 36 37 38 39 40 41 42 43 44 45 46 47 48 49 50

000
ASUS41 KAKQ 271215
RWRAKQ

REGIONAL WEATHER ROUNDUP
NATIONAL WEATHER SERVICE WAKEFIELD VA
800 AM EDT TUE JUN 27 2017

Note: "fair" indicates few or no clouds below 12,000 feet with no
significant weather and/or obstructions to visibility. * = Denotes
station may not report precipitation (e.g., rain,snow,etc.),
thunder or fog.

VAZ042-051-052>054-056-271300-
NORTHERN VIRGINIA

CITY           SKY/WX    TMP DP  RH WIND       PRES   REMARKS
WASH NATIONAL  CLOUDY    72  54  53 N5        30.04S
DULLES         CLOUDY    67  52  58 NW5       30.04R
FORT BELVOIR   CLOUDY    63  59  86 CALM      30.04R
QUANTICO       CLOUDY    66  59  78 NW8       30.05R
FREDERICKSBRG* PTSUNNY   63  63 100 CALM      30.04R
STAFFORD*      CLOUDY    62  61  96 CALM      30.08S
WARRENTON      CLOUDY    66  57  73 CALM      30.04R
CULPEPER*      CLOUDY    64  59  81 CALM      30.06R
MANASSAS*      CLOUDY    62  58  86 CALM      30.05R
LEESBURG*      CLOUDY    68  55  64 CALM      30.06R
WINCHESTER     CLOUDY    61  50  67 CALM      30.05S
FRONT ROYAL*   CLOUDY    59  54  82 CALM      30.05S
LURAY*         CLOUDY    59  54  82 CALM      30.06S
$$

VAZ048-049-060>072-079>083-271300-
CENTRAL AND SOUTH CENTRAL VIRGINIA

CITY           SKY/WX    TMP DP  RH WIND       PRES   REMARKS
RICHMOND       PTSUNNY   69  58  67 N6        30.04R
CHESTERFIELD*  FAIR      68  58  70 CALM      30.05R
PETERSBURG*    PTSUNNY   67  57  69 CALM      30.05R
HANOVER        MOSUNNY   67  57  70 CALM      30.06R
TAPPAHANNOCK*  MOSUNNY   68  61  77 CALM      30.05S
QUINTON*       FAIR      67  60  78 N3        30.04R
CHARLOTTSVILLE PTSUNNY   67  57  70 CALM      30.05R
GORDONSVILLE*  CLOUDY    67  57  70 S3        30.05R
ORANGE*        PTSUNNY   64  57  77 CALM      30.05S
LOUISA*        CLOUDY    68  63  83 CALM      30.05R
BUMPASS*       CLOUDY    64  62  93 CALM      30.05R
FARMVILLE*     CLOUDY    64  60  89 CALM      30.05R
CREWE*         FAIR      65  60  83 CALM      30.05R
FORT PICKETT*  PTSUNNY   65  56  73 NW5       30.05R
CHASE CITY*    FAIR      66  60  80 CALM      30.06R
CLARKSVILLE*   FAIR      66  59  77 CALM      30.06R
SOUTH HILL*    CLOUDY    65  59  81 N3        30.11R
LAWRENCEVILLE* CLOUDY    66  58  74 N3        30.05R
EMPORIA*       PTSUNNY   64  59  82 W5        30.05R
$$

VAZ088>098-271300-
SOUTHEAST VIRGINIA

CITY           SKY/WX    TMP DP  RH WIND       PRES   REMARKS
NORFOLK        MOSUNNY   76  64  66 W6        30.01S
VIRGINIA BEACH MOSUNNY   73  64  73 SW6       30.00F
NORFOLK NAVAL  PTSUNNY   74  63  68 W6        30.03S
WEST POINT*    PTSUNNY   67  60  78 N3        30.05S
SALUDA*        CLOUDY    71  62  73 NW7       30.03S
NEWPORT NEWS   NOT AVBL
LANGLEY AFB    PTSUNNY   72  61  68 S10       30.01S
FORT EUSTIS    MOSUNNY   74  59  59 NW5       30.00S
WILLIAMSBURG*  MOSUNNY   70  61  73 CALM      30.04R
HR EXEC AP*    FAIR      70  64  83 W3        30.00S
FRANKLIN*      MOSUNNY   68  64  88 CALM      30.03S
US460-WAKEFLD  MOSUNNY   68  61  78 CALM      30.03R
$$

VAZ020-022-025-037-045-271300-
WEST CENTRAL AND SOUTHWEST VIRGINIA

CITY           SKY/WX    TMP DP  RH WIND       PRES   REMARKS
STAUNTON*      MOSUNNY   58  53  83 CALM      30.09S
WAYNESBORO*    MOSUNNY   62  50  64 SW5       30.08S
HOT SPRINGS VA SUNNY     52  37  58 W13       30.14R
LYNCHBURG      CLOUDY    64  56  75 CALM      30.08R
DANVILLE       CLOUDY    66  59  78 MISG      30.07R
SOUTH BOSTON*  CLOUDY    65  57  74 CALM      30.07R
MARTINSVILLE   CLOUDY    61  58  91 CALM      30.11R
ROANOKE        PTSUNNY   64  52  64 W3        30.12R
BLACKSBURG     MOSUNNY   58  52  79 CALM      30.16R
DUBLIN*        MOSUNNY   62  49  62 CALM      30.15R
MARION*        SUNNY     60  54  82 SW3       30.18R
HILLSVILLE*    MOSUNNY   59  47  63 CALM      30.13F
RICHLANDS*     FAIR      56  21  25 CALM      30.18R
WISE*          SUNNY     59  46  63 CALM      30.20R
ABINGDON*      SUNNY     61  58  87 CALM      30.16R
$$

MDZ021>025-VAZ099-100-271300-
SOUTHERN MARYLAND AND THE DELMARVA PENINSULA

CITY           SKY/WX    TMP DP  RH WIND       PRES   REMARKS
PATUXENT RIVER CLOUDY    69  54  58 N6        30.03S
BAY BRIDGE APT CLOUDY    70  57  64 W3        30.03F
LEONARDTOWN    CLOUDY    64  59  82 CALM      30.04F
DOVER          LGT RAIN  65  65 100 W8        30.05R
GEORGETOWN     NOT AVBL
EASTON         DRIZZLE   66  63  88 CALM      30.08S
CAMBRIDGE      PTSUNNY   66  63  88 CALM      30.04S
SALISBURY      LGT RAIN  67  61  81 NW10      30.04R
OCEAN CITY     MOSUNNY   73  64  73 W8        30.02R
WALLOPS ISLAND PTSUNNY   74  66  76 W6        30.02R
ACCOMACK*      MOSUNNY   75  65  72 W5        30.02R
$$

NCZ012>017-030>032-271300-
NORTH CENTRAL AND EASTERN NORTH CAROLINA

CITY           SKY/WX    TMP DP  RH WIND       PRES   REMARKS
ROANOKE RAPIDS PTSUNNY   64  63  94 SW3       30.04R
RALEIGH        PTSUNNY   68  61  78 N3        30.06R
ELIZABETH CITY MOSUNNY   75  69  81 SW5       30.02S
AHOSKIE*         N/A     68  65  92 CALM      30.02F
EDENTON*       MOSUNNY   78  65  64 CALM      30.03R
CURRITUCK*     MOSUNNY   73  68  83 SW3       30.02S
KILL DEVIL HLS MOSUNNY   75  67  77 CALM      30.01S
MANTEO         MOSUNNY   74  67  77 SW5       30.03R
CAPE HATTERAS  MOSUNNY   77  70  79 CALM      30.02R
TARBORO*       NOT AVBL
GOLDSBORO      NOT AVBL
WASHINGTON     SUNNY    N/A N/A N/A W5        30.03R
GREENVILLE     SUNNY     72  64  78 CALM      30.04S
NEW BERN       SUNNY     74  67  78 CALM      30.04R
WILMINGTON     SUNNY     74  66  76 CALM      30.03R
$$

VAZ048-271300-
ELSEWHERE

CITY           SKY/WX    TMP DP  RH WIND       PRES   REMARKS
HARRISBURG PA  CLOUDY    63  59  87 SE7       30.01F
BALTIMORE      CLOUDY    67  57  70 CALM      30.03R
ANNAPOLIS      CLOUDY    64  60  87 CALM      30.03S
ANDREWS AFB    CLOUDY    65  58  79 CALM      30.03S
PHILADELPHIA   PTSUNNY   65  60  84 NW3       30.02R
HENDERSON NC   PTSUNNY   63  55  77 CALM      30.07R
GREENSBORO     PTSUNNY   67  58  72 N3        30.07R
ROCKY MOUNT    MOSUNNY   72  62  71 NW3       30.03S
$$

VAZ100-271300-
MARINE

STATION/POSITION TIME  TEMP    WIND        PRES    WAVE   SWELL
                       AIR SEA DIR/SP/G            HT/PER HT/PER
                 (UTC) (F)     (DEG/KT/KT) (MB)    (FT/S) (FT/S)
BRANDYWINE LGT   1142   69     280/  9/ 10 1016.4R
CAPE MAY NJ      1148   70 67  280/  9/ 12 1015.7R
LEWES DE         1142   69 67  290/ 10/ 12 1016.2R
15NM E FENWICK I 1150   70 68  180/ 12/ 14 1016.2S   1/ 7   2/ 7
OCEAN-CITY-INLET 1148   69 70  220/  9/ 10 1016.4R
WACHAPREAGUE VA  1148   76 77  230/  3/  5 1016.1R
THOMAS POINT MD  1200   70 77  320/  3/  3   N/A
GOOSES REEF MD   1150   71      40/  4/  6 1017.9F
COVE POINT MD    1148   71      20/  9/ 12 1017.5F
SOLOMONS ISLAND  1142   68 78  360/  5/  6   N/A
BISHOPS HEAD MD  1148   68 77  330/ 11/ 16 1017.4R
PINEY POINT MD   1148           50/  7/ 10   N/A
POTOMAC MD       1150   70      20/ 14/ 17 1016.1R
CAMBRIDGE MD     1148   70 80              1017.6F
LEWISETTA VA     1148   71 80   20/  9/ 13 1016.9S
RAPPAHANNOCK LGT 1148          280/ 13/ 18 1017.1R
STINGRAY PT      1150   73     360/ 12/ 14 1016.6R
YORK RVR RNG VA  1148   72     320/  7/ 10 1017.0R
YORKTOWN VA      1148   71 78  290/  7/ 10 1016.3R
JAMESTOWN VA     1150   72     330/  8/ 16   N/A
DOMINION TERM VA 1148   71     280/  6/  8 1016.5S
KIPTOPEKE VA     1142      73  240/  7/ 10   N/A
CHES BAY BRIDGE  1148   74 76  270/ 12/ 13 1016.0S
CAPE HENRY VA    1148   74     220/  6/  8   N/A
WILLOUBY STN VA  1148   73     260/ 10/ 12 1016.0S
S CRANEY ISL VA  1148   71     310/  4/  6 1016.2R
CAPE HENRY BUOY  1130      71                N/A     1/ 8
1ST LANDING BUOY 1150   75                 1016.3S
CAPE CHARLES BUO 1151      65                N/A     1/ 7
64NM E OF VA BCH 1150   73 73  170/  4/  4 1016.9S   2/ 5   2/ 5
DUCK PIER NC     1148   76 71  240/  6/  7 1016.2R
44100 DUCK FRF   1135      71                N/A     1/ 8
OREGON INLET NC  1142   78 74   CALM  /  1 1016.4R
HATTERAS NC      1142   78 77  340/  1/  2 1016.4R
DIAMOND SHLS NC  1150   78 81   10/  8/ 10 1016.2R   2/ 8   2/ 8
CAPE LOOKOUT NC  1100   75     350/  5/  6 1016.1R
$$



USA.gov is the U.S. government's official web portal to all federal, state and local government web resources and services.